Regional Weather Roundup
Issued by NWS Jackson, KY

Home | Current Version | Previous Version | Text Only | Print | Product List | Glossary Off
Versions: 1 2 3 4 5 6 7 8 9 10 11 12 13 14 15 16 17 18 19 20 21 22 23 24 25 26

000
ASUS43 KJKL 251310
RWRJKL

EAST KENTUCKY HOURLY WEATHER ROUNDUP
NATIONAL WEATHER SERVICE JACKSON KY
900 AM EDT WED MAY 25 2016

NOTE: "FAIR" INDICATES FEW OR NO CLOUDS BELOW 12,000 FEET WITH
NO SIGNIFICANT WEATHER AND/OR OBSTRUCTIONS TO VISIBILITY.

* THESE REPORTS ARE NOT UNDER NWS QUALITY CONTROL AND MAY NOT
  REPORT WEATHER SUCH AS PRECIPITATION AND FOG.

KYZ079-080-083-085-087-088-110-112-115-119-120-251400
...EASTERN KENTUCKY...

CITY           SKY/WX    TMP DP  RH WIND       PRES   REMARKS
JACKSON        SUNNY     65  52  62 CALM      30.21R
LONDON         SUNNY     66  54  65 SE3       30.21R
SOMERSET*      CLOUDY    63  54  72 S5        30.21R
MONTICELLO*    CLOUDY    67  58  72 NE7       30.22R
WILLIAMSBURG*  MOSUNNY   63  54  72 SE7       30.22R
MIDDLESBORO*   SUNNY     60  55  83 CALM      30.25R
HARLAN APT*      N/A     61  52  72 CALM      30.25S
HAZARD APT*    SUNNY     64  57  77 CALM      30.22R
BLACK MTN*       N/A     63  50  63 SW3         N/A
PIKE CO APT*     N/A     63  54  71 S5        30.22R
BIG SANDY APT* SUNNY     67  54  61 SE3       30.21R
MOREHEAD APT*  MOSUNNY   68  52  56 SE6       30.19R
ASHLAND*       SUNNY     63  57  82 CALM      30.16R
$$

KYZ035-036-041-042-044-050-067-078-099-251400
...CENTRAL KENTUCKY...

CITY           SKY/WX    TMP DP  RH WIND       PRES   REMARKS
MT STERLING*   PTSUNNY   68  54  60 SW6       30.19R
FLEMING/MASON* PTSUNNY  N/A N/A N/A S6        30.17S
DANVILLE*      CLOUDY    63  54  72 SW3       30.19R
RICHMOND*      CLOUDY    68  54  60 S8        30.19R
LEXINGTON      CLOUDY    65  53  65 S7        30.17R
FRANKFORT      CLOUDY    66  53  63 S7        30.14R
LOUISVILLE     LGT RAIN  69  58  67 SE7       30.11R
LEBANON*       PTSUNNY   68  55  64 SE10      30.16R
GLASGOW*       CLOUDY    68  57  69 SE3       30.15S
BOWLING GREEN  CLOUDY    70  60  70 S6        30.13S
$$

KYZ091>093-OHZ055-061-077-WVZ005-015-034-035-042-251400
...SOUTHERN OHIO/WEST VIRGINIA...

CITY           SKY/WX    TMP DP  RH WIND       PRES   REMARKS
COVINGTON      CLOUDY    68  54  60 S7        30.13R
COLUMBUS       MOSUNNY   66  51  58 S7        30.15R
DAYTON         CLOUDY    68  52  56 S10       30.14R
WILMINGTON     SUNNY     71  53  52 S10       30.14R
HUNTINGTON       N/A     64  57  78 CALM      30.18R
CHARLESTON       N/A     61  55  81 CALM      30.19S
PINEVILLE*       N/A     59  52  79 MISG      30.30S
BECKLEY          N/A     66  50  56 S6        30.26F
BLUEFIELD        N/A     66  51  58 CALM      30.29S
LOGAN CO APT*    N/A     64  55  72 CALM      30.22S
$$

VAZ002-007-008-TNZ017-027-036-066-071-251400
...SOUTHWEST VIRGINIA/EAST TENNESSEE...

CITY           SKY/WX    TMP DP  RH WIND       PRES   REMARKS
WISE*            N/A     68  43  40 S5        30.29R
JONESVILLE*      N/A     63  54  72 CALM      30.27S
ABINGDON*        N/A     65  54  68 E7        30.26F
BRISTOL        MOSUNNY   61  52  72 VRB5      30.25F
SEVIERVILLE*   SUNNY     64  52  63 CALM      30.23R
KNOXVILLE      PTSUNNY   66  55  67 CALM      30.23
OAK RIDGE      CLOUDY    65  57  75 CALM      30.24R
CROSSVILLE     CLOUDY    69  56  62 CALM      30.25R
NASHVILLE      CLOUDY    71  59  65 S8        30.15R
$$

...KEY TO REMARKS...
VSB - VISIBILITY IN MILES
WCI - WIND CHILL INDEX
HX  - HEAT INDEX

$$




USA.gov is the U.S. government's official web portal to all federal, state and local government web resources and services.